Location: Unspecified
(33.6682°S, 0.0000°E)
Time: 17:25:46
(UTC+00:00)

S-56A Canister/Altair - Pass Details

Date: 04 July 2019
Orbit: 633 x 2499 km, 38.9° (Epoch: 17 August)

Event Time Altitude Azimuth Distance (km) Brightness Sun altitude
Exits shadow 02:35:53 21° 106° (ESE) 2,833 10.6 -55.2°
Drops below altitude 10° 02:39:01 10° 100° (E) 3,862 11.5 -54.5°
Sets 02:42:59 0° 96° (E) 5,157 12.3 -53.7°
